User: anonymous   Login
Location: ActonStarParty
(42.4766°N, 71.4538°W)
Time: 13:16:51
(UTC-05:00)
Language:

ITAMSAT 1 - Orbit

View from above orbital plane
View from above orbital plane
View from above satellite
View from above satellite

Ground track
Ground track

The orbit data is extracted from the following two-line orbital elements,

1 22826U 93061D   17021.87962450  .00000005  00000-0  19560-4 0  9991
2 22826  98.7861 345.9267 0009565  35.0518 325.1291 14.30310803216661
Epoch (UTC): 21 January 2017 21:06:39
Eccentricity: 0.0009565
inclination: 98.7861°
perigee height: 784 km
apogee height: 797 km
right ascension of ascending node: 345.9267°
argument of perigee: 35.0518°
revolutions per day: 14.30310803
mean anomaly at epoch: 325.1291°
orbit number at epoch: 21666

The dashed part of the orbit path shows where the satellite is in the earth's shadow,  

DLR